Location: Babice
(50.3480°N, 22.9363°E)
Time: 12:07:51
(UTC+00:00)

Cosmos 192 - Pass Details

Date: 14 July 2020
Orbit: 702 x 712 km, 74.0° (Epoch: 08 August)

Event Time Altitude Azimuth Distance (km) Brightness Sun altitude
Rises 01:01:49 0° 333° (NNW) 3,106 8.1 -11.0°
Reaches altitude 10° 01:04:10 10° 330° (NNW) 2,182 7.2 -10.8°
Maximum altitude 01:09:00 59° 251° (WSW) 813 4.4 -10.3°
Drops below altitude 10° 01:13:48 10° 173° (S) 2,164 6.4 -9.9°
Enters shadow 01:15:57 - 170° (S) 3,007 7.2 -9.7°
